This demonstration page uses our WeatherBlox Daily Observations layout. Learn more.

Left ArrowRight Arrow

Hourly Observations for October 4, 2015

Temp ( °F °C ) Dew Point ( °F °C ) Humidity (%) Winds ( mph kmh ) Pressure ( in mb ) Visibility ( mi km ) Precip ( " mm )
12:53 am 00:53 Cloudy 53 11.7 50 10 89 89 NNE 3 6 30.05 1018 10 16 0.00 0.00
1:04 am 01:04 Cloudy 53 11.7 50 10 89 89 ENE 6 9 30.09 1019 10 16 0.00 0.00
1:53 am 01:53 Cloudy 54 12.2 51 10.6 90 90 NE 8 13 30.04 1017 10 16 0.00 0.00
2:53 am 02:53 Cloudy 55 12.8 51 10.6 87 87 ENE 8 13 30.06 1018 10 16 0.00 0.03
3:53 am 03:53 Cloudy 55 12.8 51 10.6 87 87 NE 6 9 30.05 1018 10 16 0.00 0.00
4:53 am 04:53 Cloudy 55 12.8 51 10.6 87 87 ENE 7 11 30.06 1018 10 16 0.00 0.00
5:53 am 05:53 Cloudy 55 12.8 51 10.6 87 87 NE 6 9 30.06 1018 10 16 0.00 0.00
6:53 am 06:53 Cloudy 55 12.8 50 10 83 83 ENE 8 13 30.08 1019 10 16 0.00 0.00
7:53 am 07:53 Cloudy 55 12.8 50 10 83 83 ENE 10 17 30.09 1019 10 16 0.00 0.00
8:53 am 08:53 Partly Cloudy 56 13.3 50 10 81 81 ENE 8 13 30.10 1019 10 16 0.00 0.00
9:53 am 09:53 Sunny 59 15 51 10.6 75 75 E 9 15 30.11 1020 10 16 0.00 0.00
10:53 am 10:53 Sunny 63 17.2 53 11.7 70 70 ENE 9 15 30.10 1019 10 16 0.00 0.00
11:53 am 11:53 Sunny 67 19.4 54 12.2 63 63 E 8 13 30.09 1019 10 16 0.00 0.00
12:53 pm 12:53 Sunny 71 21.7 56 13.3 59 59 ENE 9 15 30.07 1018 10 16 0.00 0.00
1:53 pm 13:53 Sunny 73 22.8 57 13.9 57 57 ENE 9 15 30.06 1018 10 16 0.00 0.00
2:53 pm 14:53 Sunny 75 23.9 57 13.9 54 54 ENE 12 19 30.04 1017 10 16 0.00 0.00
3:53 pm 15:53 Sunny 77 25 58 14.4 52 52 NE 10 17 30.03 1017 10 16 0.00 0.00
4:53 pm 16:53 Sunny 77 25 58 14.4 52 52 ENE 10 17 30.03 1017 10 16 0.00 0.00
5:53 pm 17:53 Sunny 75 23.9 58 14.4 55 55 E 8 13 30.04 1017 10 16 0.00 0.00
6:53 pm 18:53 Sunny 73 22.8 58 14.4 59 59 ENE 7 11 30.05 1018 10 16 0.00 0.00
7:53 pm 19:53 Clear 69 20.6 58 14.4 68 68 ENE 7 11 30.06 1018 10 16 0.00 0.00
8:53 pm 20:53 Clear 65 18.3 57 13.9 76 76 ENE 6 9 30.07 1018 10 16 0.00 0.00
9:53 pm 21:53 Clear 60 15.6 57 13.9 90 90 Calm 30.08 1019 10 16 0.00 0.00
10:53 pm 22:53 Clear 65 18.3 57 13.9 76 76 E 8 13 30.08 1019 10 16 0.00 0.00
11:53 pm 23:53 Clear 63 17.2 57 13.9 81 81 E 6 9 30.09 1019 10 16 0.00 0.00

Powered by AerisWeather